Time,TemperatureF,DewpointF,PressureIn,WindDirection,WindDirectionDegrees,WindSpeedMPH,WindSpeedGustMPH,Humidity,HourlyPrecipIn,Conditions,Clouds,dailyrainin,SolarRadiationWatts/m^2,SoftwareType,DateUTC
2013-02-06 00:04:00,42.9,40.2,30.07,West,269,0.0,3.0,90,0.00,,,0.00,0,Wunderground v.1.15,2013-02-06 08:04:00,
2013-02-06 00:10:00,43.1,40.4,30.08,West,281,0.0,0.0,90,0.00,,,0.00,0,Wunderground v.1.15,2013-02-06 08:10:00,
2013-02-06 00:16:00,43.2,40.5,30.08,WNW,285,1.0,1.0,90,0.00,,,0.00,0,Wunderground v.1.15,2013-02-06 08:16:00,
2013-02-06 00:22:00,43.3,40.6,30.08,WNW,286,0.0,0.0,90,0.00,,,0.00,0,Wunderground v.1.15,2013-02-06 08:22:00,
2013-02-06 00:28:00,43.3,40.6,30.08,WNW,286,0.0,0.0,90,0.00,,,0.00,0,Wunderground v.1.15,2013-02-06 08:28:00,
2013-02-06 00:34:00,43.4,40.7,30.08,WNW,294,0.0,0.0,90,0.00,,,0.00,0,Wunderground v.1.15,2013-02-06 08:34:00,
2013-02-06 00:40:00,43.3,40.6,30.08,WNW,302,0.0,0.0,90,0.00,,,0.00,0,Wunderground v.1.15,2013-02-06 08:40:00,
2013-02-06 00:46:00,43.2,40.5,30.08,NW,308,0.0,1.0,90,0.00,,,0.00,0,Wunderground v.1.15,2013-02-06 08:46:00,
2013-02-06 00:52:00,43.3,40.6,30.09,NW,312,1.0,1.0,90,0.00,,,0.00,0,Wunderground v.1.15,2013-02-06 08:52:00,
2013-02-06 00:58:00,43.3,40.6,30.09,NW,313,1.0,1.0,90,0.00,,,0.00,0,Wunderground v.1.15,2013-02-06 08:58:00,
2013-02-06 01:04:00,43.3,40.6,30.09,NW,323,1.0,6.0,90,0.00,,,0.00,0,Wunderground v.1.15,2013-02-06 09:04:00,
2013-02-06 01:10:00,43.1,40.4,30.09,NW,323,0.0,0.0,90,0.00,,,0.00,0,Wunderground v.1.15,2013-02-06 09:10:00,
2013-02-06 01:16:00,43.0,40.3,30.09,NW,323,0.0,1.0,90,0.00,,,0.00,0,Wunderground v.1.15,2013-02-06 09:16:00,
2013-02-06 01:22:00,42.9,40.2,30.09,NW,324,0.0,0.0,90,0.00,,,0.00,0,Wunderground v.1.15,2013-02-06 09:22:00,
2013-02-06 01:28:00,42.7,40.0,30.08,NW,325,0.0,0.0,90,0.00,,,0.00,0,Wunderground v.1.15,2013-02-06 09:28:00,
2013-02-06 01:34:00,42.6,39.9,30.08,NW,325,0.0,0.0,90,0.00,,,0.00,0,Wunderground v.1.15,2013-02-06 09:34:00,
2013-02-06 01:40:00,42.5,39.8,30.08,NW,325,0.0,0.0,90,0.00,,,0.00,0,Wunderground v.1.15,2013-02-06 09:40:00,
2013-02-06 01:46:00,42.4,39.7,30.08,NW,324,0.0,0.0,90,0.00,,,0.00,0,Wunderground v.1.15,2013-02-06 09:46:00,
2013-02-06 01:52:00,42.3,39.6,30.08,NW,325,0.0,0.0,90,0.00,,,0.00,0,Wunderground v.1.15,2013-02-06 09:52:00,
2013-02-06 01:58:00,42.3,39.6,30.08,NW,325,0.0,2.0,90,0.00,,,0.00,0,Wunderground v.1.15,2013-02-06 09:58:00,
2013-02-06 02:04:00,42.4,39.7,30.08,NW,324,1.0,7.0,90,0.00,,,0.00,0,Wunderground v.1.15,2013-02-06 10:04:00,
2013-02-06 02:10:00,42.4,39.7,30.08,NW,324,1.0,1.0,90,0.00,,,0.00,0,Wunderground v.1.15,2013-02-06 10:10:00,
2013-02-06 02:16:00,42.3,39.6,30.07,NW,324,1.0,1.0,90,0.00,,,0.00,0,Wunderground v.1.15,2013-02-06 10:16:00,
2013-02-06 02:22:00,42.3,39.6,30.08,NW,324,0.0,0.0,90,0.00,,,0.00,0,Wunderground v.1.15,2013-02-06 10:22:00,
2013-02-06 02:28:00,42.2,39.5,30.07,NW,324,0.0,0.0,90,0.00,,,0.00,0,Wunderground v.1.15,2013-02-06 10:28:00,
2013-02-06 02:34:00,42.3,39.6,30.07,NW,324,0.0,0.0,90,0.00,,,0.00,0,Wunderground v.1.15,2013-02-06 10:34:00,
2013-02-06 02:40:00,42.5,39.8,30.07,NW,325,0.0,0.0,90,0.00,,,0.00,0,Wunderground v.1.15,2013-02-06 10:40:00,
2013-02-06 02:46:00,42.5,39.8,30.07,NW,324,1.0,1.0,90,0.00,,,0.00,0,Wunderground v.1.15,2013-02-06 10:46:00,
2013-02-06 02:52:00,42.4,40.0,30.07,NW,323,1.0,4.0,91,0.00,,,0.00,0,Wunderground v.1.15,2013-02-06 10:52:00,
2013-02-06 02:58:00,42.4,40.0,30.07,NW,323,2.0,6.0,91,0.00,,,0.00,0,Wunderground v.1.15,2013-02-06 10:58:00,
2013-02-06 03:04:00,42.3,39.9,30.07,NW,324,2.0,4.0,91,0.00,,,0.00,0,Wunderground v.1.15,2013-02-06 11:04:00,
2013-02-06 03:10:00,42.2,39.8,30.07,NW,324,0.0,0.0,91,0.00,,,0.00,0,Wunderground v.1.15,2013-02-06 11:10:00,
2013-02-06 03:16:00,42.1,39.7,30.07,NW,324,0.0,0.0,91,0.00,,,0.00,0,Wunderground v.1.15,2013-02-06 11:16:00,
2013-02-06 03:22:00,42.0,39.6,30.07,NW,324,0.0,0.0,91,0.00,,,0.00,0,Wunderground v.1.15,2013-02-06 11:22:00,
2013-02-06 03:28:00,41.9,39.5,30.07,NW,324,0.0,0.0,91,0.00,,,0.00,0,Wunderground v.1.15,2013-02-06 11:28:00,
2013-02-06 03:34:00,41.8,39.4,30.07,NW,324,0.0,0.0,91,0.00,,,0.00,0,Wunderground v.1.15,2013-02-06 11:34:00,
2013-02-06 03:40:00,41.6,39.2,30.07,NW,324,0.0,0.0,91,0.00,,,0.00,0,Wunderground v.1.15,2013-02-06 11:40:00,
2013-02-06 03:46:00,41.5,39.1,30.07,NW,324,0.0,0.0,91,0.00,,,0.00,0,Wunderground v.1.15,2013-02-06 11:46:00,
2013-02-06 03:52:00,41.3,38.9,30.07,NW,324,0.0,0.0,91,0.00,,,0.00,0,Wunderground v.1.15,2013-02-06 11:52:00,
2013-02-06 03:58:00,41.2,38.8,30.07,NW,324,0.0,0.0,91,0.00,,,0.00,0,Wunderground v.1.15,2013-02-06 11:58:00,
2013-02-06 04:04:00,41.3,38.9,30.07,NW,324,0.0,6.0,91,0.00,,,0.00,0,Wunderground v.1.15,2013-02-06 12:04:00,
2013-02-06 04:10:00,41.3,38.9,30.07,NW,324,0.0,0.0,91,0.00,,,0.00,0,Wunderground v.1.15,2013-02-06 12:10:00,
2013-02-06 04:16:00,41.2,38.8,30.07,NW,324,0.0,0.0,91,0.00,,,0.01,0,Wunderground v.1.15,2013-02-06 12:16:00,
2013-02-06 04:22:00,41.1,38.7,30.08,NW,324,0.0,0.0,91,0.00,,,0.01,0,Wunderground v.1.15,2013-02-06 12:22:00,
2013-02-06 04:28:00,41.0,38.6,30.08,NW,324,0.0,0.0,91,0.00,,,0.01,0,Wunderground v.1.15,2013-02-06 12:28:00,
2013-02-06 04:34:00,41.0,38.6,30.08,NW,324,0.0,0.0,91,0.00,,,0.01,0,Wunderground v.1.15,2013-02-06 12:34:00,
2013-02-06 04:40:00,40.8,38.4,30.08,NW,324,0.0,0.0,91,0.00,,,0.01,0,Wunderground v.1.15,2013-02-06 12:40:00,
2013-02-06 04:46:00,40.6,38.2,30.08,NW,324,0.0,0.0,91,0.00,,,0.01,0,Wunderground v.1.15,2013-02-06 12:46:00,
2013-02-06 04:52:00,40.4,38.0,30.08,NW,324,0.0,0.0,91,0.00,,,0.01,0,Wunderground v.1.15,2013-02-06 12:52:00,
2013-02-06 04:58:00,40.1,37.7,30.08,NW,324,0.0,0.0,91,0.00,,,0.01,0,Wunderground v.1.15,2013-02-06 12:58:00,
2013-02-06 05:04:00,39.8,37.4,30.08,NW,324,0.0,6.0,91,0.00,,,0.01,0,Wunderground v.1.15,2013-02-06 13:04:00,
2013-02-06 05:10:00,39.6,37.2,30.08,NW,324,0.0,0.0,91,0.00,,,0.01,0,Wunderground v.1.15,2013-02-06 13:10:00,
2013-02-06 05:16:00,39.4,37.0,30.08,NW,324,0.0,0.0,91,0.00,,,0.01,0,Wunderground v.1.15,2013-02-06 13:16:00,
2013-02-06 05:22:00,39.3,36.9,30.08,NW,324,0.0,0.0,91,0.00,,,0.01,0,Wunderground v.1.15,2013-02-06 13:22:00,
2013-02-06 05:28:00,39.0,36.6,30.08,NW,324,0.0,0.0,91,0.00,,,0.01,0,Wunderground v.1.15,2013-02-06 13:28:00,
2013-02-06 05:34:00,38.8,36.4,30.08,NW,324,0.0,0.0,91,0.00,,,0.01,0,Wunderground v.1.15,2013-02-06 13:34:00,
2013-02-06 05:40:00,38.5,36.1,30.08,NW,324,0.0,0.0,91,0.00,,,0.01,0,Wunderground v.1.15,2013-02-06 13:40:00,
2013-02-06 05:46:00,38.3,35.9,30.08,NW,324,0.0,0.0,91,0.00,,,0.01,0,Wunderground v.1.15,2013-02-06 13:46:00,
2013-02-06 05:52:00,38.3,35.9,30.08,NW,324,0.0,0.0,91,0.00,,,0.01,0,Wunderground v.1.15,2013-02-06 13:52:00,
2013-02-06 05:58:00,38.4,36.0,30.09,NW,324,0.0,0.0,91,0.00,,,0.01,0,Wunderground v.1.15,2013-02-06 13:58:00,
2013-02-06 06:04:00,38.6,36.2,30.09,NW,324,0.0,4.0,91,0.00,,,0.01,0,Wunderground v.1.15,2013-02-06 14:04:00,
2013-02-06 06:10:00,38.7,36.6,30.09,NW,324,0.0,0.0,92,0.00,,,0.01,0,Wunderground v.1.15,2013-02-06 14:10:00,
2013-02-06 06:16:00,38.8,36.7,30.09,NW,324,0.0,0.0,92,0.00,,,0.01,0,Wunderground v.1.15,2013-02-06 14:16:00,
2013-02-06 06:22:00,38.9,36.8,30.09,NW,324,0.0,0.0,92,0.00,,,0.01,0,Wunderground v.1.15,2013-02-06 14:22:00,
2013-02-06 06:28:00,39.2,36.8,30.10,NW,324,0.0,0.0,91,0.00,,,0.01,0,Wunderground v.1.15,2013-02-06 14:28:00,
2013-02-06 06:34:00,39.4,37.3,30.10,NW,324,0.0,0.0,92,0.00,,,0.01,0,Wunderground v.1.15,2013-02-06 14:34:00,
2013-02-06 06:40:00,40.0,37.9,30.10,NW,325,0.0,0.0,92,0.00,,,0.01,0,Wunderground v.1.15,2013-02-06 14:40:00,
2013-02-06 06:46:00,40.3,38.2,30.10,NW,325,1.0,1.0,92,0.00,,,0.01,0,Wunderground v.1.15,2013-02-06 14:46:00,
2013-02-06 06:52:00,40.6,38.5,30.10,NW,325,1.0,5.0,92,0.00,,,0.01,0,Wunderground v.1.15,2013-02-06 14:52:00,
2013-02-06 06:58:00,40.6,38.5,30.10,NW,325,0.0,5.0,92,0.00,,,0.01,0,Wunderground v.1.15,2013-02-06 14:58:00,
2013-02-06 07:04:00,40.5,38.4,30.10,NW,325,0.0,0.0,92,0.00,,,0.01,0,Wunderground v.1.15,2013-02-06 15:04:00,
2013-02-06 07:10:00,40.5,38.4,30.10,NW,325,0.0,0.0,92,0.00,,,0.01,5,Wunderground v.1.15,2013-02-06 15:10:00,
2013-02-06 07:16:00,40.6,38.5,30.10,NW,325,0.0,0.0,92,0.00,,,0.01,9,Wunderground v.1.15,2013-02-06 15:16:00,
2013-02-06 07:22:00,40.6,38.5,30.10,NW,325,0.0,0.0,92,0.00,,,0.01,12,Wunderground v.1.15,2013-02-06 15:22:00,
2013-02-06 07:28:00,40.6,38.5,30.11,NW,325,0.0,0.0,92,0.00,,,0.01,18,Wunderground v.1.15,2013-02-06 15:28:00,
2013-02-06 07:34:00,40.6,38.5,30.10,NW,325,0.0,0.0,92,0.00,,,0.01,21,Wunderground v.1.15,2013-02-06 15:34:00,
2013-02-06 07:40:00,40.7,38.6,30.10,NW,326,0.0,0.0,92,0.00,,,0.01,30,Wunderground v.1.15,2013-02-06 15:40:00,
2013-02-06 07:46:00,40.9,38.8,30.11,NNW,329,0.0,0.0,92,0.00,,,0.01,39,Wunderground v.1.15,2013-02-06 15:46:00,
2013-02-06 07:52:00,40.9,38.8,30.11,NNW,329,0.0,0.0,92,0.00,,,0.01,49,Wunderground v.1.15,2013-02-06 15:52:00,
2013-02-06 07:58:00,40.9,38.8,30.11,NNW,329,0.0,0.0,92,0.00,,,0.01,54,Wunderground v.1.15,2013-02-06 15:58:00,
2013-02-06 08:04:00,40.9,38.8,30.11,NNW,329,0.0,6.0,92,0.00,,,0.01,58,Wunderground v.1.15,2013-02-06 16:04:00,
2013-02-06 08:10:00,41.1,39.0,30.11,NNW,329,0.0,0.0,92,0.00,,,0.01,74,Wunderground v.1.15,2013-02-06 16:10:00,
2013-02-06 08:16:00,41.2,39.1,30.11,NNW,329,0.0,0.0,92,0.00,,,0.01,63,Wunderground v.1.15,2013-02-06 16:16:00,
2013-02-06 08:22:00,41.5,39.3,30.11,NNW,329,0.0,0.0,92,0.00,,,0.01,77,Wunderground v.1.15,2013-02-06 16:22:00,
2013-02-06 08:28:00,41.8,39.6,30.11,NNW,329,0.0,0.0,92,0.00,,,0.01,77,Wunderground v.1.15,2013-02-06 16:28:00,
2013-02-06 08:34:00,42.0,39.8,30.11,NNW,329,0.0,0.0,92,0.00,,,0.01,185,Wunderground v.1.15,2013-02-06 16:34:00,
2013-02-06 08:40:00,42.2,40.0,30.11,NNW,329,0.0,0.0,92,0.00,,,0.01,95,Wunderground v.1.15,2013-02-06 16:40:00,
2013-02-06 08:46:00,42.4,40.2,30.12,NNW,329,0.0,0.0,92,0.00,,,0.01,102,Wunderground v.1.15,2013-02-06 16:46:00,
2013-02-06 08:52:00,42.5,40.3,30.12,NNW,329,0.0,0.0,92,0.00,,,0.01,109,Wunderground v.1.15,2013-02-06 16:52:00,
2013-02-06 08:58:00,42.6,40.4,30.12,NNW,329,0.0,0.0,92,0.00,,,0.01,121,Wunderground v.1.15,2013-02-06 16:58:00,
2013-02-06 09:04:00,42.9,40.7,30.12,NNW,329,0.0,3.0,92,0.00,,,0.01,127,Wunderground v.1.15,2013-02-06 17:04:00,
2013-02-06 09:10:00,43.2,41.0,30.12,NNW,329,0.0,0.0,92,0.00,,,0.01,91,Wunderground v.1.15,2013-02-06 17:10:00,
2013-02-06 09:16:00,43.6,41.4,30.12,NNW,329,0.0,0.0,92,0.00,,,0.01,178,Wunderground v.1.15,2013-02-06 17:16:00,
2013-02-06 09:22:00,44.0,41.8,30.12,NNW,329,0.0,0.0,92,0.00,,,0.01,262,Wunderground v.1.15,2013-02-06 17:22:00,
2013-02-06 09:28:00,43.9,41.7,30.12,NNW,329,0.0,0.0,92,0.00,,,0.01,93,Wunderground v.1.15,2013-02-06 17:28:00,
2013-02-06 09:34:00,44.0,41.8,30.12,NNW,329,0.0,0.0,92,0.00,,,0.01,369,Wunderground v.1.15,2013-02-06 17:34:00,
2013-02-06 09:40:00,44.6,42.4,30.13,NNW,329,0.0,0.0,92,0.00,,,0.01,336,Wunderground v.1.15,2013-02-06 17:40:00,
2013-02-06 09:46:00,45.3,43.1,30.12,NNW,329,0.0,0.0,92,0.00,,,0.01,371,Wunderground v.1.15,2013-02-06 17:46:00,
2013-02-06 09:52:00,45.8,43.6,30.13,NNW,329,0.0,0.0,92,0.00,,,0.01,390,Wunderground v.1.15,2013-02-06 17:52:00,
2013-02-06 09:58:00,46.4,44.2,30.13,NNW,329,0.0,0.0,92,0.00,,,0.01,403,Wunderground v.1.15,2013-02-06 17:58:00,
2013-02-06 10:04:00,47.3,45.1,30.13,NNW,329,0.0,1.0,92,0.00,,,0.01,418,Wunderground v.1.15,2013-02-06 18:04:00,
2013-02-06 10:10:00,48.0,45.8,30.13,NNW,329,0.0,0.0,92,0.00,,,0.01,441,Wunderground v.1.15,2013-02-06 18:10:00,
2013-02-06 10:16:00,48.5,46.3,30.13,NNW,329,0.0,0.0,92,0.00,,,0.01,459,Wunderground v.1.15,2013-02-06 18:16:00,
2013-02-06 10:22:00,48.8,46.3,30.13,NNW,329,0.0,0.0,91,0.00,,,0.01,480,Wunderground v.1.15,2013-02-06 18:22:00,
2013-02-06 10:28:00,49.3,46.8,30.13,NNW,329,0.0,0.0,91,0.00,,,0.01,517,Wunderground v.1.15,2013-02-06 18:28:00,
2013-02-06 10:34:00,50.2,47.1,30.13,NNW,329,0.0,0.0,89,0.00,,,0.01,540,Wunderground v.1.15,2013-02-06 18:34:00,
2013-02-06 10:40:00,51.0,47.3,30.13,NNW,330,1.0,3.0,87,0.00,,,0.01,554,Wunderground v.1.15,2013-02-06 18:40:00,
2013-02-06 10:46:00,51.3,46.0,30.13,NW,321,3.0,4.0,82,0.00,,,0.01,559,Wunderground v.1.15,2013-02-06 18:46:00,
2013-02-06 10:52:00,51.5,45.2,30.12,NW,315,3.0,3.0,79,0.00,,,0.01,573,Wunderground v.1.15,2013-02-06 18:52:00,
2013-02-06 10:58:00,52.3,45.3,30.12,NW,321,1.0,5.0,77,0.00,,,0.01,585,Wunderground v.1.15,2013-02-06 18:58:00,
2013-02-06 11:04:00,52.8,44.7,30.12,NW,315,1.0,6.0,74,0.00,,,0.01,591,Wunderground v.1.15,2013-02-06 19:04:00,
2013-02-06 11:10:00,53.2,44.0,30.12,NW,314,1.0,1.0,71,0.00,,,0.01,601,Wunderground v.1.15,2013-02-06 19:10:00,
2013-02-06 11:16:00,53.6,43.7,30.12,NW,304,0.0,6.0,69,0.00,,,0.01,610,Wunderground v.1.15,2013-02-06 19:16:00,
2013-02-06 11:22:00,54.0,43.3,30.12,NW,308,1.0,1.0,67,0.00,,,0.01,615,Wunderground v.1.15,2013-02-06 19:22:00,
2013-02-06 11:28:00,54.2,42.3,30.12,NW,314,1.0,2.0,64,0.00,,,0.01,622,Wunderground v.1.15,2013-02-06 19:28:00,
2013-02-06 11:34:00,54.6,42.7,30.12,North,5,1.0,5.0,64,0.00,,,0.01,629,Wunderground v.1.15,2013-02-06 19:34:00,
2013-02-06 11:40:00,54.8,42.9,30.12,NNE,12,1.0,1.0,64,0.00,,,0.01,636,Wunderground v.1.15,2013-02-06 19:40:00,
2013-02-06 11:46:00,55.1,42.3,30.11,NNW,343,1.0,6.0,62,0.00,,,0.01,640,Wunderground v.1.15,2013-02-06 19:46:00,
2013-02-06 11:52:00,55.5,42.7,30.11,NNW,337,1.0,1.0,62,0.00,,,0.01,645,Wunderground v.1.15,2013-02-06 19:52:00,
2013-02-06 11:58:00,56.0,42.3,30.11,NNW,342,1.0,1.0,60,0.00,,,0.01,650,Wunderground v.1.15,2013-02-06 19:58:00,
2013-02-06 12:04:00,56.6,43.3,30.10,NNW,343,0.0,7.0,61,0.00,,,0.01,652,Wunderground v.1.15,2013-02-06 20:04:00,
2013-02-06 12:10:00,57.3,42.6,30.10,NNW,343,0.0,0.0,58,0.00,,,0.01,656,Wunderground v.1.15,2013-02-06 20:10:00,
2013-02-06 12:16:00,57.3,41.7,30.09,NNW,336,0.0,1.0,56,0.00,,,0.01,661,Wunderground v.1.15,2013-02-06 20:16:00,
2013-02-06 12:22:00,57.6,41.5,30.09,NNW,336,0.0,0.0,55,0.00,,,0.01,661,Wunderground v.1.15,2013-02-06 20:22:00,
2013-02-06 12:28:00,58.0,41.9,30.09,NNE,14,0.0,6.0,55,0.00,,,0.01,659,Wunderground v.1.15,2013-02-06 20:28:00,
2013-02-06 12:34:00,58.5,41.9,30.09,North,5,1.0,2.0,54,0.00,,,0.01,656,Wunderground v.1.15,2013-02-06 20:34:00,
2013-02-06 12:39:00,58.5,41.4,30.08,North,360,1.0,1.0,53,0.00,,,0.01,659,Wunderground v.1.15,2013-02-06 20:39:00,
2013-02-06 12:45:00,58.5,41.4,30.08,North,5,1.0,4.0,53,0.00,,,0.01,654,Wunderground v.1.15,2013-02-06 20:45:00,
2013-02-06 12:52:00,59.2,41.6,30.08,North,5,1.0,1.0,52,0.00,,,0.01,650,Wunderground v.1.15,2013-02-06 20:52:00,
2013-02-06 12:58:00,58.9,41.3,30.07,North,360,1.0,4.0,52,0.00,,,0.01,650,Wunderground v.1.15,2013-02-06 20:58:00,
2013-02-06 13:04:00,59.3,40.7,30.07,North,360,0.0,8.0,50,0.00,,,0.01,647,Wunderground v.1.15,2013-02-06 21:04:00,
2013-02-06 13:10:00,59.3,40.7,30.07,NE,40,1.0,1.0,50,0.00,,,0.01,647,Wunderground v.1.15,2013-02-06 21:10:00,
2013-02-06 13:16:00,59.4,40.7,30.07,North,360,1.0,1.0,50,0.00,,,0.01,628,Wunderground v.1.15,2013-02-06 21:16:00,
2013-02-06 13:22:00,59.8,40.6,30.06,North,355,1.0,1.0,49,0.00,,,0.01,636,Wunderground v.1.15,2013-02-06 21:22:00,
2013-02-06 13:28:00,59.8,40.1,30.06,North,355,0.0,1.0,48,0.00,,,0.01,631,Wunderground v.1.15,2013-02-06 21:28:00,
2013-02-06 13:34:00,59.9,39.6,30.06,North,355,0.0,0.0,47,0.00,,,0.01,626,Wunderground v.1.15,2013-02-06 21:34:00,
2013-02-06 13:40:00,60.4,40.6,30.05,NW,304,0.0,0.0,48,0.00,,,0.01,619,Wunderground v.1.15,2013-02-06 21:40:00,
2013-02-06 13:46:00,60.9,41.1,30.05,WNW,303,0.0,0.0,48,0.00,,,0.01,617,Wunderground v.1.15,2013-02-06 21:46:00,
2013-02-06 13:52:00,61.1,41.2,30.05,WNW,293,0.0,1.0,48,0.00,,,0.01,606,Wunderground v.1.15,2013-02-06 21:52:00,
2013-02-06 13:58:00,61.2,41.9,30.05,WNW,296,0.0,1.0,49,0.00,,,0.01,557,Wunderground v.1.15,2013-02-06 21:58:00,
2013-02-06 14:04:00,61.3,40.3,30.05,WNW,288,1.0,8.0,46,0.00,,,0.01,527,Wunderground v.1.15,2013-02-06 22:04:00,
2013-02-06 14:10:00,61.1,40.1,30.05,SW,234,1.0,1.0,46,0.00,,,0.01,540,Wunderground v.1.15,2013-02-06 22:10:00,
2013-02-06 14:16:00,61.1,41.2,30.05,SW,234,1.0,3.0,48,0.00,,,0.01,598,Wunderground v.1.15,2013-02-06 22:16:00,
2013-02-06 14:22:00,61.2,41.3,30.04,South,178,0.0,4.0,48,0.00,,,0.01,566,Wunderground v.1.15,2013-02-06 22:22:00,
2013-02-06 14:28:00,61.6,41.7,30.04,ESE,117,1.0,4.0,48,0.00,,,0.01,548,Wunderground v.1.15,2013-02-06 22:28:00,
2013-02-06 14:34:00,61.8,40.8,30.04,ESE,117,1.0,1.0,46,0.00,,,0.01,536,Wunderground v.1.15,2013-02-06 22:34:00,
2013-02-06 14:40:00,61.7,40.7,30.04,SE,128,0.0,2.0,46,0.00,,,0.01,534,Wunderground v.1.15,2013-02-06 22:40:00,
2013-02-06 14:46:00,61.4,40.4,30.04,SE,142,1.0,2.0,46,0.00,,,0.01,499,Wunderground v.1.15,2013-02-06 22:46:00,
2013-02-06 14:52:00,61.3,42.0,30.04,SE,129,1.0,1.0,49,0.00,,,0.01,503,Wunderground v.1.15,2013-02-06 22:52:00,
2013-02-06 14:58:00,61.7,41.8,30.03,SE,131,1.0,5.0,48,0.00,,,0.01,475,Wunderground v.1.15,2013-02-06 22:58:00,
2013-02-06 15:04:00,62.2,41.7,30.04,SSE,157,1.0,6.0,47,0.00,,,0.01,466,Wunderground v.1.15,2013-02-06 23:04:00,
2013-02-06 15:10:00,61.9,41.4,30.03,SSE,159,1.0,1.0,47,0.00,,,0.01,448,Wunderground v.1.15,2013-02-06 23:10:00,
2013-02-06 15:16:00,61.8,42.4,30.03,SE,132,2.0,2.0,49,0.00,,,0.01,311,Wunderground v.1.15,2013-02-06 23:16:00,
2013-02-06 15:22:00,62.1,42.7,30.04,South,189,2.0,2.0,49,0.00,,,0.01,420,Wunderground v.1.15,2013-02-06 23:22:00,
2013-02-06 15:28:00,62.2,43.3,30.03,SE,131,2.0,7.0,50,0.00,,,0.01,401,Wunderground v.1.15,2013-02-06 23:28:00,
2013-02-06 15:34:00,62.0,44.2,30.03,South,177,2.0,8.0,52,0.00,,,0.01,362,Wunderground v.1.15,2013-02-06 23:34:00,
2013-02-06 15:40:00,61.7,44.9,30.03,South,181,3.0,3.0,54,0.00,,,0.01,353,Wunderground v.1.15,2013-02-06 23:40:00,
2013-02-06 15:46:00,61.3,45.0,30.03,SSE,168,2.0,3.0,55,0.00,,,0.01,265,Wunderground v.1.15,2013-02-06 23:46:00,
2013-02-06 15:52:00,61.0,45.7,30.04,SSW,194,1.0,1.0,57,0.00,,,0.01,197,Wunderground v.1.15,2013-02-06 23:52:00,
2013-02-06 15:58:00,60.7,44.9,30.03,South,180,2.0,2.0,56,0.00,,,0.01,330,Wunderground v.1.15,2013-02-06 23:58:00,
2013-02-06 16:04:00,61.0,45.7,30.04,South,171,1.0,7.0,57,0.00,,,0.01,315,Wunderground v.1.15,2013-02-07 00:04:00,
2013-02-06 16:10:00,61.1,45.3,30.03,South,173,1.0,1.0,56,0.00,,,0.01,281,Wunderground v.1.15,2013-02-07 00:10:00,
2013-02-06 16:16:00,61.1,44.8,30.03,South,175,2.0,6.0,55,0.00,,,0.01,246,Wunderground v.1.15,2013-02-07 00:16:00,
2013-02-06 16:22:00,61.1,44.8,30.03,South,178,2.0,2.0,55,0.00,,,0.01,221,Wunderground v.1.15,2013-02-07 00:22:00,
2013-02-06 16:28:00,61.1,44.8,30.03,South,178,1.0,2.0,55,0.00,,,0.01,151,Wunderground v.1.15,2013-02-07 00:28:00,
2013-02-06 16:34:00,60.7,44.4,30.03,SSE,159,1.0,1.0,55,0.00,,,0.01,160,Wunderground v.1.15,2013-02-07 00:34:00,
2013-02-06 16:40:00,60.5,44.2,30.03,South,177,1.0,2.0,55,0.00,,,0.01,144,Wunderground v.1.15,2013-02-07 00:40:00,
2013-02-06 16:46:00,60.1,42.9,30.03,South,175,1.0,2.0,53,0.00,,,0.01,109,Wunderground v.1.15,2013-02-07 00:46:00,
2013-02-06 16:52:00,60.0,43.3,30.03,SSE,155,1.0,1.0,54,0.00,,,0.01,102,Wunderground v.1.15,2013-02-07 00:52:00,
2013-02-06 16:58:00,59.7,43.0,30.03,SE,140,1.0,1.0,54,0.00,,,0.01,83,Wunderground v.1.15,2013-02-07 00:58:00,
2013-02-06 17:04:00,59.4,42.7,30.03,SSE,149,1.0,9.0,54,0.00,,,0.01,67,Wunderground v.1.15,2013-02-07 01:04:00,
2013-02-06 17:10:00,58.5,42.4,30.03,SSE,153,0.0,0.0,55,0.00,,,0.01,37,Wunderground v.1.15,2013-02-07 01:10:00,
2013-02-06 17:16:00,58.1,42.5,30.03,SSE,152,0.0,0.0,56,0.00,,,0.01,30,Wunderground v.1.15,2013-02-07 01:16:00,
2013-02-06 17:22:00,57.5,42.4,30.03,SE,142,0.0,0.0,57,0.00,,,0.01,25,Wunderground v.1.15,2013-02-07 01:22:00,
2013-02-06 17:28:00,57.1,42.0,30.03,SE,134,0.0,3.0,57,0.00,,,0.01,16,Wunderground v.1.15,2013-02-07 01:28:00,
2013-02-06 17:34:00,56.5,41.9,30.03,SE,134,0.0,0.0,58,0.00,,,0.01,9,Wunderground v.1.15,2013-02-07 01:34:00,
2013-02-06 17:40:00,55.9,42.2,30.03,SE,138,0.0,0.0,60,0.00,,,0.01,5,Wunderground v.1.15,2013-02-07 01:40:00,
2013-02-06 17:46:00,55.3,42.1,30.03,SE,139,0.0,0.0,61,0.00,,,0.01,0,Wunderground v.1.15,2013-02-07 01:46:00,
2013-02-06 17:51:00,54.8,42.4,30.03,SE,139,0.0,0.0,63,0.00,,,0.01,0,Wunderground v.1.15,2013-02-07 01:51:00,
2013-02-06 17:58:00,54.2,42.3,30.03,SE,139,0.0,0.0,64,0.00,,,0.01,0,Wunderground v.1.15,2013-02-07 01:58:00,
2013-02-06 18:04:00,53.6,42.1,30.03,SE,138,0.0,9.0,65,0.00,,,0.01,0,Wunderground v.1.15,2013-02-07 02:04:00,
2013-02-06 18:10:00,53.2,42.1,30.03,SE,138,0.0,0.0,66,0.00,,,0.01,0,Wunderground v.1.15,2013-02-07 02:10:00,
2013-02-06 18:16:00,52.7,42.0,30.03,SE,138,0.0,0.0,67,0.00,,,0.01,0,Wunderground v.1.15,2013-02-07 02:16:00,
2013-02-06 18:22:00,52.3,42.0,30.03,SE,138,0.0,0.0,68,0.00,,,0.01,0,Wunderground v.1.15,2013-02-07 02:22:00,
2013-02-06 18:28:00,51.7,41.9,30.03,SE,140,0.0,2.0,69,0.00,,,0.01,0,Wunderground v.1.15,2013-02-07 02:28:00,
2013-02-06 18:34:00,51.2,42.1,30.03,SE,146,0.0,0.0,71,0.00,,,0.01,0,Wunderground v.1.15,2013-02-07 02:34:00,
2013-02-06 18:40:00,50.7,41.6,30.03,SE,146,0.0,0.0,71,0.00,,,0.01,0,Wunderground v.1.15,2013-02-07 02:40:00,
2013-02-06 18:46:00,50.3,41.6,30.03,SE,146,0.0,0.0,72,0.00,,,0.01,0,Wunderground v.1.15,2013-02-07 02:46:00,
2013-02-06 18:52:00,49.9,41.6,30.03,SE,146,0.0,0.0,73,0.00,,,0.01,0,Wunderground v.1.15,2013-02-07 02:52:00,
2013-02-06 18:58:00,49.6,41.7,30.03,SE,146,0.0,0.0,74,0.00,,,0.01,0,Wunderground v.1.15,2013-02-07 02:58:00,
2013-02-06 19:04:00,49.3,41.7,30.04,SE,146,0.0,4.0,75,0.00,,,0.01,0,Wunderground v.1.15,2013-02-07 03:04:00,
2013-02-06 19:10:00,49.0,41.8,30.04,SE,146,0.0,0.0,76,0.00,,,0.01,0,Wunderground v.1.15,2013-02-07 03:10:00,
2013-02-06 19:15:00,48.7,41.5,30.03,SE,146,0.0,0.0,76,0.00,,,0.01,0,Wunderground v.1.15,2013-02-07 03:15:00,
2013-02-06 19:21:00,48.3,41.4,30.04,SE,146,0.0,0.0,77,0.00,,,0.01,0,Wunderground v.1.15,2013-02-07 03:21:00,
2013-02-06 19:28:00,47.9,41.4,30.04,SE,146,0.0,0.0,78,0.00,,,0.01,0,Wunderground v.1.15,2013-02-07 03:28:00,
2013-02-06 19:34:00,47.6,41.1,30.04,SSE,147,0.0,0.0,78,0.00,,,0.01,0,Wunderground v.1.15,2013-02-07 03:34:00,
2013-02-06 19:40:00,47.4,40.9,30.04,SSE,147,0.0,0.0,78,0.00,,,0.01,0,Wunderground v.1.15,2013-02-07 03:40:00,
2013-02-06 19:46:00,47.3,41.1,30.04,SSE,150,0.0,0.0,79,0.00,,,0.01,0,Wunderground v.1.15,2013-02-07 03:46:00,
2013-02-06 19:52:00,47.1,40.9,30.03,SSE,150,0.0,0.0,79,0.00,,,0.01,0,Wunderground v.1.15,2013-02-07 03:52:00,
2013-02-06 19:58:00,47.0,40.8,30.03,SSE,155,0.0,1.0,79,0.00,,,0.01,0,Wunderground v.1.15,2013-02-07 03:58:00,
2013-02-06 20:04:00,46.7,40.5,30.04,SSE,155,0.0,3.0,79,0.00,,,0.01,0,Wunderground v.1.15,2013-02-07 04:04:00,
2013-02-06 20:10:00,46.5,40.3,30.04,SSE,155,0.0,0.0,79,0.00,,,0.01,0,Wunderground v.1.15,2013-02-07 04:10:00,
2013-02-06 20:16:00,46.2,40.4,30.04,SSE,155,0.0,0.0,80,0.00,,,0.01,0,Wunderground v.1.15,2013-02-07 04:16:00,
2013-02-06 20:21:00,45.9,40.1,30.04,SSE,155,0.0,0.0,80,0.00,,,0.01,0,Wunderground v.1.15,2013-02-07 04:21:00,
2013-02-06 20:28:00,45.5,39.7,30.04,SSE,155,0.0,0.0,80,0.00,,,0.01,0,Wunderground v.1.15,2013-02-07 04:28:00,
2013-02-06 20:34:00,45.2,39.7,30.05,SSE,155,0.0,0.0,81,0.00,,,0.01,0,Wunderground v.1.15,2013-02-07 04:34:00,
2013-02-06 20:40:00,44.8,39.6,30.05,SSE,155,0.0,0.0,82,0.00,,,0.01,0,Wunderground v.1.15,2013-02-07 04:40:00,
2013-02-06 20:46:00,44.5,39.3,30.05,SSE,155,0.0,0.0,82,0.00,,,0.01,0,Wunderground v.1.15,2013-02-07 04:46:00,
2013-02-06 20:52:00,44.5,39.7,30.05,SSE,155,0.0,0.0,83,0.00,,,0.01,0,Wunderground v.1.15,2013-02-07 04:52:00,
2013-02-06 20:58:00,44.3,39.5,30.05,SSE,155,0.0,0.0,83,0.00,,,0.01,0,Wunderground v.1.15,2013-02-07 04:58:00,
2013-02-06 21:02:00,44.2,39.7,30.05,SSE,155,0.0,4.0,84,0.00,,,0.01,0,Wunderground v.1.15,2013-02-07 05:02:00,
2013-02-06 21:04:00,44.3,39.8,30.05,SSE,155,0.0,4.0,84,0.00,,,0.01,0,Wunderground v.1.15,2013-02-07 05:04:00,
2013-02-06 21:10:00,44.4,39.9,30.05,SSE,155,0.0,0.0,84,0.00,,,0.01,0,Wunderground v.1.15,2013-02-07 05:10:00,
2013-02-06 21:12:00,44.4,40.2,30.05,SSE,155,0.0,0.0,85,0.00,,,0.01,0,Wunderground v.1.15,2013-02-07 05:12:00,
2013-02-06 21:14:00,44.4,40.2,30.05,SSE,155,0.0,0.0,85,0.00,,,0.01,0,Wunderground v.1.15,2013-02-07 05:14:00,
2013-02-06 21:20:00,44.4,40.2,30.05,SSE,148,0.0,0.0,85,0.00,,,0.01,0,Wunderground v.1.15,2013-02-07 05:20:00,
2013-02-06 21:26:00,44.5,40.3,30.06,SSE,154,0.0,3.0,85,0.00,,,0.01,0,Wunderground v.1.15,2013-02-07 05:26:00,
2013-02-06 21:32:00,44.5,40.3,30.05,SSE,157,0.0,0.0,85,0.00,,,0.01,0,Wunderground v.1.15,2013-02-07 05:32:00,
2013-02-06 21:38:00,44.5,40.3,30.06,South,171,0.0,5.0,85,0.00,,,0.01,0,Wunderground v.1.15,2013-02-07 05:38:00,
2013-02-06 21:44:00,44.6,40.4,30.06,South,180,2.0,5.0,85,0.00,,,0.01,0,Wunderground v.1.15,2013-02-07 05:44:00,
2013-02-06 21:50:00,44.6,40.4,30.06,South,174,2.0,3.0,85,0.00,,,0.01,0,Wunderground v.1.15,2013-02-07 05:50:00,
2013-02-06 21:56:00,44.6,40.4,30.06,South,174,1.0,3.0,85,0.00,,,0.01,0,Wunderground v.1.15,2013-02-07 05:56:00,
2013-02-06 22:02:00,44.5,40.3,30.06,South,174,0.0,1.0,85,0.00,,,0.01,0,Wunderground v.1.15,2013-02-07 06:02:00,
2013-02-06 22:08:00,44.5,40.3,30.06,South,174,0.0,1.0,85,0.00,,,0.01,0,Wunderground v.1.15,2013-02-07 06:08:00,
2013-02-06 22:14:00,44.5,40.3,30.06,South,174,0.0,0.0,85,0.00,,,0.01,0,Wunderground v.1.15,2013-02-07 06:14:00,
2013-02-06 22:20:00,44.3,40.1,30.06,South,174,0.0,0.0,85,0.00,,,0.01,0,Wunderground v.1.15,2013-02-07 06:20:00,
2013-02-06 22:26:00,44.1,39.9,30.06,South,173,0.0,0.0,85,0.00,,,0.01,0,Wunderground v.1.15,2013-02-07 06:26:00,
2013-02-06 22:32:00,44.0,40.1,30.06,South,174,0.0,0.0,86,0.00,,,0.01,0,Wunderground v.1.15,2013-02-07 06:32:00,
2013-02-06 22:38:00,43.8,39.9,30.06,South,174,0.0,0.0,86,0.00,,,0.01,0,Wunderground v.1.15,2013-02-07 06:38:00,
2013-02-06 22:44:00,43.5,39.6,30.07,South,174,0.0,0.0,86,0.00,,,0.01,0,Wunderground v.1.15,2013-02-07 06:44:00,
2013-02-06 22:50:00,43.3,39.4,30.07,South,174,0.0,0.0,86,0.00,,,0.01,0,Wunderground v.1.15,2013-02-07 06:50:00,
2013-02-06 22:56:00,43.0,39.1,30.07,South,174,0.0,0.0,86,0.00,,,0.01,0,Wunderground v.1.15,2013-02-07 06:56:00,
2013-02-06 23:02:00,42.7,38.8,30.07,South,173,0.0,8.0,86,0.00,,,0.01,0,Wunderground v.1.15,2013-02-07 07:02:00,
2013-02-06 23:08:00,42.5,38.6,30.07,South,174,0.0,8.0,86,0.00,,,0.01,0,Wunderground v.1.15,2013-02-07 07:08:00,
2013-02-06 23:14:00,42.3,38.7,30.07,South,174,0.0,0.0,87,0.00,,,0.01,0,Wunderground v.1.15,2013-02-07 07:14:00,
2013-02-06 23:20:00,42.1,38.5,30.07,South,173,0.0,0.0,87,0.00,,,0.01,0,Wunderground v.1.15,2013-02-07 07:20:00,
2013-02-06 23:26:00,41.9,38.3,30.07,South,173,0.0,0.0,87,0.00,,,0.01,0,Wunderground v.1.15,2013-02-07 07:26:00,
2013-02-06 23:32:00,41.7,38.1,30.07,South,174,0.0,0.0,87,0.00,,,0.01,0,Wunderground v.1.15,2013-02-07 07:32:00,
2013-02-06 23:38:00,41.6,38.0,30.08,South,174,0.0,0.0,87,0.00,,,0.01,0,Wunderground v.1.15,2013-02-07 07:38:00,
2013-02-06 23:44:00,41.5,37.9,30.08,South,173,0.0,0.0,87,0.00,,,0.01,0,Wunderground v.1.15,2013-02-07 07:44:00,
2013-02-06 23:50:00,41.4,37.8,30.08,South,173,0.0,0.0,87,0.00,,,0.01,0,Wunderground v.1.15,2013-02-07 07:50:00,
2013-02-06 23:56:00,41.3,38.0,30.08,South,173,0.0,0.0,88,0.00,,,0.01,0,Wunderground v.1.15,2013-02-07 07:56:00,